Latest Weather Observations for Cooma Airport

IDN60801

Issued at 5:05 pm EDT Thursday 27 November 2014 (issued every 30 minutes, with the page automatically refreshed every 10 minutes)

About weather observations | Map of weather stations | Latest weather observations for NSW | Other Formats
Station Details ID: 070217 Name: COOMA AIRPORT AWS Lat: -36.29 Lon: 148.97 Height: 930.0 m
Data from the previous 72 hours. | See also: Recent months for locations in New South Wales
Date/Time
EDT
Temp
°C
App
Temp
°C
Dew
Point
Rel
Hum
%
Delta-T
°C
Wind Press
QNH
hPa
Press
MSL
hPa
Rain
since 9 am
mm
Dir
 
Spd
km/h
Gust
km/h
Spd
kts
Gust
kts
27/05:00pm 20.8 15.9 2.1 29 9.1 SE 17 28 9 15 1021.8 1019.5 0.2
27/04:30pm 20.9 16.0 1.7 28 9.3 S 17 28 9 15 1021.8 1019.5 0.2
27/04:00pm 20.7 15.4 2.0 29 9.1 SSE 19 30 10 16 1022.0 1019.7 0.2
27/03:30pm 21.4 15.4 1.1 26 9.7 S 22 32 12 17 1022.0 1019.7 0.2
27/03:00pm 21.0 15.5 1.8 28 9.3 S 20 32 11 17 1022.0 1019.7 0.2
27/02:30pm 20.5 15.2 1.9 29 9.0 SSE 19 30 10 16 1022.3 1020.1 0.2
27/02:00pm 20.0 15.9 -0.1 26 9.3 SSW 11 15 6 8 1022.6 1020.3 0.2
27/01:30pm 19.4 15.4 2.7 33 8.1 SSE 13 17 7 9 1022.6 1020.3 0.2
27/01:00pm 18.8 14.6 7.3 47 6.1 S 19 28 10 15 1022.7 1020.4 0.2
27/12:30pm 18.5 15.9 7.9 50 5.7 SSW 11 22 6 12 1022.8 1020.5 0.2
27/12:00pm 17.7 14.9 8.6 55 4.9 SSW 13 20 7 11 1023.0 1020.7 0.2
27/11:30am 17.1 15.4 10.0 63 3.9 S 9 15 5 8 1023.1 1020.9 0.2
27/11:00am 16.6 15.1 10.5 67 3.4 SSE 9 13 5 7 1023.3 1021.1 0.2
27/10:30am 15.0 14.1 9.4 69 3.0 S 4 9 2 5 1023.4 1021.2 0.2
27/10:00am 14.1 12.6 9.1 72 2.7 S 7 11 4 6 1023.7 1021.4 0.0
27/09:54am 14.1 12.7 9.5 74 2.5 S 7 11 4 6 1023.7 1021.4 0.0
27/09:30am 13.1 10.8 9.0 76 2.2 SW 11 13 6 7 1023.7 1021.4 0.0
27/09:11am 13.3 11.8 8.6 73 2.5 ENE 6 9 3 5 1023.8 1021.5 0.0
27/09:00am 13.4 13.2 10.4 82 1.6 S 2 9 1 5 1023.8 1021.5 7.2
27/08:30am 12.2 10.9 9.9 86 1.2 SW 7 11 4 6 1023.8 1021.5 7.2
27/08:00am 11.0 10.1 9.3 89 0.9 SW 4 7 2 4 1023.4 1021.2 7.2
27/07:35am 10.5 9.1 8.9 90 0.8 S 6 9 3 5 1023.4 1021.2 7.2
27/07:30am 10.6 9.1 9.2 91 0.7 S 7 13 4 7 1023.3 1021.1 7.2
27/07:28am 10.6 8.7 9.0 90 0.8 S 9 15 5 8 1023.2 1021.0 7.2
27/07:00am 10.2 8.8 9.4 95 0.4 S 7 9 4 5 1023.1 1020.9 7.2
27/06:30am 9.9 8.0 9.0 94 0.5 S 9 11 5 6 1022.8 1020.5 7.2
27/06:00am 9.9 8.5 9.6 98 0.2 S 7 11 4 6 1022.6 1020.3 7.2
27/05:30am 9.9 8.1 9.4 97 0.3 S 9 11 5 6 1022.5 1020.2 7.2
27/05:00am 9.7 7.4 9.1 96 0.3 S 11 15 6 8 1022.0 1019.7 7.2
27/04:30am 10.3 9.0 10.0 98 0.2 SSW 7 11 4 6 1021.8 1019.5 7.2
27/04:00am 10.1 10.0 9.5 96 0.3 CALM 0 0 0 0 1021.6 1019.3 7.2
27/03:32am 10.1 8.4 9.9 99 0.1 S 9 11 5 6 1021.7 1019.4 7.2
27/03:30am 10.1 8.4 9.9 99 0.1 S 9 11 5 6 1021.7 1019.4 7.2
27/03:24am 10.0 8.3 9.9 99 0.1 SSW 9 11 5 6 1021.7 1019.4 7.2
27/03:00am 10.2 8.9 10.0 99 0.1 S 7 9 4 5 1021.9 1019.6 7.2
27/02:30am 10.0 7.9 9.9 99 0.1 SSW 11 13 6 7 1022.0 1019.7 7.2
27/02:17am 10.1 7.7 9.9 99 0.1 S 13 15 7 8 1022.0 1019.7 7.2
27/02:00am 10.2 8.2 10.0 99 0.1 SSW 11 15 6 8 1022.1 1019.9 7.2
27/01:30am 10.2 8.2 10.0 99 0.1 SSW 11 13 6 7 1022.1 1019.9 7.2
27/01:00am 10.3 7.5 10.1 99 0.1 S 15 20 8 11 1022.6 1020.3 7.2
27/12:37am 10.6 8.3 10.4 99 0.1 S 13 17 7 9 1022.7 1020.4 7.2
27/12:30am 10.5 8.2 10.3 99 0.1 S 13 19 7 10 1022.7 1020.4 7.2
27/12:04am 10.2 8.5 10.0 99 0.1 W 9 11 5 6 1022.9 1020.6 7.0
27/12:00am 10.2 8.5 10.0 99 0.1 WSW 9 11 5 6 1022.9 1020.6 7.0
 
Date/Time
EDT
Temp
°C
App
Temp
°C
Dew
Point
Rel
Hum
%
Delta-T
°C
Wind Press
QNH
hPa
Press
MSL
hPa
Rain
since 9 am
mm
Dir
 
Spd
km/h
Gust
km/h
Spd
kts
Gust
kts
26/11:30pm 10.3 9.0 10.0 98 0.2 NW 7 9 4 5 1022.9 1020.6 5.8
26/11:29pm 10.4 9.1 10.1 98 0.2 NW 7 11 4 6 1022.9 1020.6 5.8
26/11:00pm 10.4 8.8 10.1 98 0.2 ENE 9 15 5 8 1022.8 1020.5 5.2
26/10:30pm 10.6 7.8 10.1 97 0.3 ENE 15 19 8 10 1022.7 1020.4 4.8
26/10:00pm 11.4 8.9 11.2 99 0.1 E 15 17 8 9 1022.5 1020.2 4.4
26/09:47pm 11.3 9.6 11.1 99 0.1 ENE 11 15 6 8 1022.5 1020.2 4.4
26/09:30pm 11.5 9.8 11.3 99 0.1 E 11 19 6 10 1022.2 1020.0 4.4
26/09:00pm 11.9 10.7 11.7 99 0.1 E 9 13 5 7 1022.0 1019.7 1.2
26/08:59pm 11.9 10.7 11.7 99 0.1 ENE 9 13 5 7 1022.0 1019.7 1.0
26/08:30pm 12.3 10.1 12.1 99 0.1 NE 15 22 8 12 1021.6 1019.3 0.0
26/08:00pm 13.1 11.3 12.0 93 0.6 NE 13 19 7 10 1021.1 1018.8 0.0
26/07:30pm 13.9 10.4 10.9 82 1.7 NNE 20 24 11 13 1020.8 1018.5 0.0
26/07:00pm 15.0 11.4 9.8 71 2.8 ENE 19 28 10 15 1019.9 1017.6 0.0
26/06:30pm 16.0 11.1 10.1 68 3.3 E 26 33 14 18 1019.2 1016.8 0.0
26/06:00pm 16.8 11.5 10.0 64 3.7 E 28 35 15 19 1018.7 1016.4 0.0
26/05:30pm 20.0 14.9 4.1 35 8.0 S 20 30 11 16 1018.1 1015.7 0.0
26/05:00pm 20.5 13.9 4.1 34 8.3 S 28 35 15 19 1017.6 1015.3 0.0
26/04:30pm 20.3 15.1 2.6 31 8.7 S 19 26 10 14 1017.8 1015.4 0.0
26/04:00pm 21.2 15.9 2.0 28 9.3 SSE 19 32 10 17 1017.5 1015.2 0.0
26/03:30pm 21.1 18.3 1.9 28 9.3 SW 6 17 3 9 1017.6 1015.3 0.0
26/03:00pm 21.7 18.2 3.4 30 9.2 SE 11 20 6 11 1017.8 1015.4 0.0
26/02:30pm 20.6 17.0 2.9 31 8.7 SSE 11 17 6 9 1018.1 1015.7 0.0
26/02:00pm 20.5 15.7 2.8 31 8.7 SE 17 37 9 20 1018.2 1015.8 0.0
26/01:30pm 20.5 18.3 6.1 39 7.6 NNE 7 15 4 8 1018.5 1016.2 0.0
26/01:00pm 19.3 16.1 3.1 34 7.9 ESE 9 22 5 12 1018.8 1016.5 0.0
26/12:30pm 18.5 15.6 2.8 35 7.6 SSW 7 11 4 6 1019.2 1016.8 0.0
26/12:00pm 18.2 14.8 1.7 33 7.8 WNW 9 15 5 8 1019.4 1017.1 0.0
26/11:30am 18.0 14.6 1.9 34 7.7 SSE 9 28 5 15 1019.6 1017.3 0.0
26/11:00am 16.6 13.6 2.2 38 6.8 WSW 7 11 4 6 1019.7 1017.4 0.0
26/10:30am 15.8 11.8 2.6 41 6.3 S 13 19 7 10 1020.0 1017.7 0.0
26/10:00am 14.9 11.8 3.7 47 5.4 S 9 13 5 7 1020.2 1017.8 0.0
26/09:30am 14.1 12.2 6.7 61 3.8 W 6 11 3 6 1020.3 1018.0 0.0
26/09:00am 12.6 10.8 8.1 74 2.3 SSW 7 11 4 6 1020.5 1018.2 0.0
26/08:30am 10.5 9.6 7.6 82 1.5 SSW 2 6 1 3 1020.6 1018.3 0.0
26/08:00am 9.2 8.8 8.1 93 0.6 CALM 0 0 0 0 1020.6 1018.3 0.0
26/07:30am 7.7 7.1 7.6 99 0.0 CALM 0 0 0 0 1020.4 1018.1 0.0
26/07:00am 7.0 6.2 6.4 96 0.3 CALM 0 4 0 2 1020.4 1018.1 0.0
26/06:33am 5.2 3.0 5.1 99 0.0 NNE 6 7 3 4 1020.3 1018.0 0.0
26/06:31am 5.2 2.8 5.1 99 0.0 NNE 7 7 4 4 1020.3 1018.0 0.0
26/06:30am 5.1 2.6 5.0 99 0.0 NNE 7 7 4 4 1020.3 1018.0 0.0
26/06:00am 4.7 2.4 4.6 99 0.0 NE 6 7 3 4 1020.2 1017.8 0.0
26/05:30am 4.2 1.2 4.1 99 0.0 NE 9 11 5 6 1019.7 1017.4 0.0
26/05:29am 4.1 1.1 4.0 99 0.0 NE 9 11 5 6 1019.7 1017.4 0.0
26/05:00am 4.4 2.9 3.1 91 0.6 CALM 0 0 0 0 1019.6 1017.3 0.0
26/04:30am 5.8 3.4 4.4 91 0.6 WSW 6 9 3 5 1019.8 1017.5 0.0
26/04:16am 7.1 5.1 7.0 99 0.0 W 7 9 4 5 1019.7 1017.4 0.0
26/04:00am 7.3 6.6 6.9 97 0.2 CALM 0 7 0 4 1019.6 1017.3 0.0
26/03:30am 7.4 6.7 7.0 97 0.2 CALM 0 0 0 0 1019.6 1017.3 0.0
26/03:00am 7.2 5.8 7.1 99 0.0 NNE 4 7 2 4 1019.6 1017.3 0.0
26/02:30am 7.2 6.5 7.1 99 0.0 CALM 0 0 0 0 1019.9 1017.6 0.0
26/02:00am 4.8 2.5 4.7 99 0.0 SSW 6 11 3 6 1020.2 1017.8 0.0
26/01:57am 4.7 1.8 4.6 99 0.0 SW 9 11 5 6 1020.2 1017.8 0.0
26/01:30am 4.5 3.0 3.2 91 0.6 CALM 0 0 0 0 1020.5 1018.2 0.0
26/01:00am 4.8 3.3 2.8 87 0.9 CALM 0 0 0 0 1020.7 1018.4 0.0
26/12:30am 5.0 3.5 3.2 88 0.8 CALM 0 0 0 0 1020.7 1018.4 0.0
26/12:00am 5.6 3.3 2.9 83 1.2 W 4 9 2 5 1020.8 1018.5 0.0
 
Date/Time
EDT
Temp
°C
App
Temp
°C
Dew
Point
Rel
Hum
%
Delta-T
°C
Wind Press
QNH
hPa
Press
MSL
hPa
Rain
since 9 am
mm
Dir
 
Spd
km/h
Gust
km/h
Spd
kts
Gust
kts
25/11:30pm 6.0 4.0 2.5 78 1.5 N 2 6 1 3 1020.9 1018.6 0.0
25/11:00pm 8.3 6.1 3.2 70 2.3 NW 4 9 2 5 1020.8 1018.5 0.0
25/10:30pm 10.0 7.8 3.5 64 3.0 S 4 9 2 5 1020.7 1018.4 0.0
25/10:00pm 10.8 7.3 3.4 60 3.4 W 11 19 6 10 1020.2 1017.8 0.0
25/09:30pm 11.3 7.1 3.6 59 3.6 W 15 22 8 12 1019.9 1017.6 0.0
25/09:00pm 11.3 7.8 3.3 58 3.7 W 11 17 6 9 1019.6 1017.3 0.0
25/08:30pm 11.5 7.8 2.5 54 4.1 W 11 15 6 8 1019.3 1017.0 0.0
25/08:00pm 13.4 9.3 2.0 46 5.2 WNW 13 17 7 9 1019.0 1016.6 0.0
25/07:30pm 15.6 10.3 2.1 40 6.3 WNW 19 24 10 13 1018.6 1016.3 0.0
25/07:00pm 17.1 11.2 1.5 35 7.3 WNW 22 30 12 16 1018.2 1015.8 0.0
25/06:30pm 18.5 12.7 0.2 29 8.4 W 20 30 11 16 1017.5 1015.2 0.0
25/06:00pm 19.2 13.4 -0.2 27 8.9 W 20 28 11 15 1017.1 1014.7 0.0
25/05:30pm 19.5 13.6 -2.2 23 9.6 W 19 30 10 16 1017.0 1014.6 0.0
25/05:00pm 20.1 14.5 0.0 26 9.3 WNW 19 30 10 16 1016.9 1014.5 0.0
25/04:30pm 20.2 15.5 -1.6 23 9.8 W 13 20 7 11 1016.7 1014.3 0.0
25/04:00pm 20.2 15.4 -2.2 22 10.0 S 13 28 7 15 1016.7 1014.3 0.0
25/03:30pm 20.5 14.6 -2.5 21 10.2 W 19 26 10 14 1016.5 1014.2 0.0
25/03:00pm 19.2 14.0 -2.4 23 9.5 S 15 22 8 12 1016.7 1014.3 0.0
25/02:30pm 20.2 14.1 -2.2 22 10.0 SW 20 32 11 17 1016.5 1014.2 0.0
25/02:00pm 19.6 14.0 -2.7 22 9.8 SW 17 28 9 15 1016.3 1013.9 0.0
25/01:30pm 19.1 15.0 -3.1 22 9.6 SW 9 20 5 11 1016.2 1013.8 0.0
25/01:00pm 17.9 14.8 1.4 33 7.8 WSW 7 17 4 9 1016.3 1013.9 0.0
25/12:30pm 17.7 13.3 2.5 36 7.3 SW 15 28 8 15 1016.5 1014.2 0.0
25/12:00pm 16.4 12.8 0.9 35 7.1 SSW 9 15 5 8 1016.5 1014.2 0.0
25/11:30am 15.9 12.6 2.3 40 6.4 W 9 19 5 10 1016.5 1014.2 0.0
25/11:00am 15.3 11.4 1.1 38 6.5 SSW 11 20 6 11 1016.3 1013.9 0.0
25/10:30am 14.6 9.9 1.2 40 6.1 SSW 15 22 8 12 1016.1 1013.7 0.0
25/10:00am 13.7 10.4 2.6 47 5.2 SSW 9 15 5 8 1015.9 1013.5 0.0
25/09:30am 12.4 9.7 5.6 63 3.3 SSW 9 15 5 8 1015.8 1013.4 0.0
25/09:00am 11.5 9.8 6.0 69 2.7 SE 4 11 2 6 1015.6 1013.2 8.6
25/08:31am 10.8 6.3 6.9 77 2.0 S 20 30 11 16 1015.5 1013.0 8.6
25/08:30am 10.6 6.0 6.7 77 1.9 S 20 30 11 16 1015.6 1013.2 8.6
25/08:00am 10.5 7.4 7.2 80 1.7 SSE 13 17 7 9 1015.0 1012.6 8.6
25/07:30am 9.9 7.1 8.5 91 0.7 S 13 15 7 8 1014.5 1012.0 8.6
25/07:00am 9.3 7.2 8.1 92 0.6 S 9 13 5 7 1013.9 1011.5 8.6
25/06:30am 8.4 5.9 8.3 99 0.1 S 11 15 6 8 1013.3 1010.8 8.6
25/06:11am 7.7 5.1 7.6 99 0.0 SW 11 13 6 7 1013.0 1010.6 8.6
25/06:00am 7.2 4.4 7.1 99 0.0 WSW 11 13 6 7 1012.5 1010.0 8.6
25/05:30am 7.8 4.8 7.7 99 0.0 S 13 19 7 10 1011.7 1009.3 8.6
25/05:10am 8.3 4.2 8.0 98 0.2 S 19 30 10 16 1011.4 1008.9 8.6
25/05:00am 8.9 5.4 8.6 98 0.2 SSW 17 26 9 14 1011.2 1008.7 8.6
25/04:54am 9.6 6.3 9.5 99 0.1 SSW 17 24 9 13 1011.1 1008.6 8.6
25/04:30am 10.5 8.9 10.3 99 0.1 SW 9 17 5 9 1010.7 1008.3 8.6
25/04:28am 10.5 8.9 10.3 99 0.1 SW 9 17 5 9 1010.7 1008.3 8.6
25/04:00am 10.8 9.3 10.6 99 0.1 WSW 9 11 5 6 1010.5 1008.0 8.6
25/03:30am 11.5 8.1 11.3 99 0.1 SSW 20 26 11 14 1010.0 1007.5 8.6
25/03:06am 12.2 8.3 12.0 99 0.1 SSW 24 33 13 18 1010.1 1007.6 8.6
25/03:00am 12.3 8.4 12.0 98 0.2 SSW 24 33 13 18 1010.0 1007.5 8.6
25/02:30am 14.2 12.5 11.2 82 1.7 W 11 13 6 7 1009.2 1006.7 8.4
25/02:00am 15.0 11.9 11.6 80 1.9 WNW 19 26 10 14 1009.3 1006.8 8.4
25/01:30am 13.4 12.4 12.3 93 0.6 NNW 9 11 5 6 1009.5 1007.0 8.4
25/01:00am 12.5 11.4 12.0 97 0.3 N 9 13 5 7 1010.3 1007.8 8.4
25/12:30am 13.1 12.6 12.2 94 0.5 NE 6 11 3 6 1010.6 1008.1 8.4
25/12:00am 13.3 10.1 12.0 92 0.7 NNE 20 28 11 15 1010.5 1008.0 8.4
 
Date/Time
EDT
Temp
°C
App
Temp
°C
Dew
Point
Rel
Hum
%
Delta-T
°C
Wind Press
QNH
hPa
Press
MSL
hPa
Rain
since 9 am
mm
Dir
 
Spd
km/h
Gust
km/h
Spd
kts
Gust
kts
24/11:30pm 12.9 10.3 12.0 94 0.5 NNE 17 19 9 10 1010.9 1008.4 8.4
24/11:00pm 13.0 11.7 11.1 88 1.1 SSW 9 15 5 8 1011.2 1008.7 8.4
24/10:48pm 13.4 10.4 10.8 84 1.4 SSW 17 20 9 11 1011.2 1008.7 8.4
24/10:32pm 14.3 9.2 10.5 78 2.1 W 28 46 15 25 1013.3 1010.8 7.2
24/10:30pm 14.6 10.0 11.0 79 2.0 W 26 44 14 24 1013.3 1010.8 7.2
24/10:00pm 14.6 12.5 12.5 87 1.2 NW 15 22 8 12 1013.4 1010.9 6.4
24/09:58pm 14.6 12.7 13.0 90 0.9 NW 15 22 8 12 1013.3 1010.8 6.2
24/09:30pm 14.5 12.8 12.5 88 1.1 NW 13 20 7 11 1012.3 1009.8 4.8
24/09:18pm 14.8 10.1 11.9 83 1.6 WNW 28 46 15 25 1013.2 1010.7 3.4
24/09:17pm 15.1 10.7 11.7 80 1.9 WNW 26 46 14 25 1013.2 1010.7 3.0
24/09:00pm 16.8 16.2 10.4 66 3.6 WNW 4 9 2 5 1011.2 1008.7 1.2
24/08:30pm 16.9 14.5 10.1 64 3.8 W 13 20 7 11 1011.6 1009.1 1.2
24/08:00pm 17.9 17.6 13.2 74 2.8 NNW 7 11 4 6 1011.4 1008.9 1.2
24/07:30pm 18.4 18.0 13.0 71 3.2 NNW 7 9 4 5 1011.4 1008.9 1.2
24/07:00pm 18.7 18.0 13.1 70 3.3 NNW 9 15 5 8 1011.0 1008.5 1.2
24/06:30pm 19.0 16.3 13.0 68 3.5 NNW 19 30 10 16 1010.5 1008.0 1.2
24/06:00pm 19.3 15.7 13.2 68 3.6 NNW 24 33 13 18 1010.5 1008.0 1.2
24/05:30pm 19.4 16.6 14.2 72 3.1 NNW 22 28 12 15 1010.3 1007.8 1.2

Other Formats:

Comma delimited format used in spreadsheet applications
http://www.bom.gov.au/fwo/IDN60801/IDN60801.94921.axf

JavaScript Object Notation format (JSON) in row-major order
http://www.bom.gov.au/fwo/IDN60801/IDN60801.94921.json